ACA843 EDDF-CYUL

Flight info

Callsign ACA843
Flight time N/A
Altitude 36000
Route OBOKA5G/25C OBOKA Z29 TORNU DCT BATAK DCT GALSO Q63 ERING L179 UGBET Q60 OKSAW/N0471F380 DCT TEWXI DCT VATRY DCT RESNO/M082F390 NATC LOMSI/N0474F400 N668A TAFFY DCT KEBIG ROCKT3
Aircraft B772/H-SDE2E3FGHIJ5LORVWXY/LB1D1

Departure

Time N/A
Airport Frankfurt Main Airport (EDDF)

Arrival

Time 2026-05-05 21:37
Airport Montreal / Pierre Elliott Trudeau International Airport (CYUL)
Time Latitude Longitude Altitude Speed Heading
2026-05-05 14:24 51.10754 6.20458 35873 ft 471 kts 292°
2026-05-05 14:24 51.13627 6.11007 35868 ft 466 kts 287°
2026-05-05 14:25 51.15435 6.01194 35869 ft 462 kts 281°
2026-05-05 14:25 51.17030 5.91391 35871 ft 461 kts 281°
2026-05-05 14:26 51.19061 5.81658 35864 ft 467 kts 293°
2026-05-05 14:26 51.22315 5.72734 35871 ft 472 kts 297°
2026-05-05 14:27 51.25698 5.63786 35864 ft 470 kts 297°
2026-05-05 14:27 51.29050 5.54874 35863 ft 471 kts 297°
2026-05-05 14:28 51.32393 5.45947 35866 ft 470 kts 297°
2026-05-05 14:28 51.35711 5.37048 35868 ft 470 kts 297°
2026-05-05 14:29 51.39031 5.28115 35874 ft 468 kts 296°
2026-05-05 14:29 51.42366 5.19105 35867 ft 468 kts 297°
2026-05-05 14:30 51.45657 5.10184 35873 ft 469 kts 297°
2026-05-05 14:30 51.48965 5.01185 35879 ft 469 kts 297°
2026-05-05 14:31 51.52248 4.92224 35879 ft 469 kts 297°
2026-05-05 14:31 51.55518 4.83193 35870 ft 467 kts 293°
2026-05-05 14:32 51.57610 4.73510 35877 ft 457 kts 277°
2026-05-05 14:32 51.58723 4.63488 35877 ft 456 kts 276°
2026-05-05 14:33 51.59792 4.53469 35879 ft 459 kts 276°
2026-05-05 14:33 51.60848 4.43432 35881 ft 457 kts 276°
2026-05-05 14:34 51.61898 4.33329 35885 ft 459 kts 276°
2026-05-05 14:34 51.62930 4.23301 35894 ft 458 kts 276°
2026-05-05 14:35 51.63961 4.13183 35900 ft 457 kts 276°
2026-05-05 14:35 51.64977 4.03119 35901 ft 458 kts 276°
2026-05-05 14:36 51.65982 3.93072 35898 ft 458 kts 276°
2026-05-05 14:36 51.66987 3.82930 35905 ft 458 kts 276°
2026-05-05 14:37 51.67974 3.72867 35906 ft 458 kts 276°
2026-05-05 14:37 51.68958 3.62756 35907 ft 459 kts 276°
2026-05-05 14:38 51.69931 3.52661 35909 ft 459 kts 276°
2026-05-05 14:38 51.70902 3.42488 35909 ft 459 kts 276°
2026-05-05 14:39 51.71856 3.32407 35910 ft 459 kts 275°
2026-05-05 14:39 51.72808 3.22224 35919 ft 458 kts 275°
2026-05-05 14:40 51.72775 3.12081 35928 ft 452 kts 260°
2026-05-05 14:40 51.71953 3.02106 35929 ft 452 kts 260°
2026-05-05 14:41 51.71099 2.92127 35919 ft 453 kts 259°
2026-05-05 14:41 51.70224 2.82092 35922 ft 454 kts 259°
2026-05-05 14:42 51.69335 2.72040 35917 ft 454 kts 259°
2026-05-05 14:42 51.68443 2.62054 35919 ft 454 kts 259°
2026-05-05 14:43 51.67537 2.51969 35917 ft 455 kts 259°
2026-05-05 14:43 51.66624 2.41926 35918 ft 456 kts 259°
2026-05-05 14:44 51.65702 2.31910 35915 ft 456 kts 259°
2026-05-05 14:44 51.64765 2.21812 35922 ft 457 kts 259°
2026-05-05 14:45 51.63818 2.11720 35923 ft 456 kts 259°
2026-05-05 14:45 51.62886 2.01672 35918 ft 456 kts 259°
2026-05-05 14:46 51.61950 1.91593 35919 ft 457 kts 259°
2026-05-05 14:46 51.61005 1.81526 35924 ft 457 kts 259°
2026-05-05 14:47 51.60048 1.71442 35930 ft 458 kts 259°
2026-05-05 14:47 51.59209 1.61365 35926 ft 460 kts 266°
2026-05-05 14:48 51.59490 1.51145 35930 ft 463 kts 272°
2026-05-05 14:48 51.59941 1.40805 35930 ft 463 kts 272°
2026-05-05 14:49 51.60376 1.30540 35934 ft 463 kts 271°
2026-05-05 14:49 51.60803 1.20224 35936 ft 462 kts 271°
2026-05-05 14:50 51.61216 1.09978 35942 ft 462 kts 271°
2026-05-05 14:50 51.61621 0.99680 35947 ft 462 kts 272°
2026-05-05 14:51 51.62016 0.89434 35951 ft 462 kts 272°
2026-05-05 14:51 51.62401 0.79176 35947 ft 463 kts 272°
2026-05-05 14:52 51.62781 0.68817 36115 ft 466 kts 272°
2026-05-05 14:52 51.62966 0.63686 35986 ft 464 kts 271°
2026-05-05 14:52 51.63149 0.58553 35952 ft 460 kts 272°
2026-05-05 14:53 51.63509 0.48237 35944 ft 464 kts 271°
2026-05-05 14:53 51.63860 0.37919 35940 ft 462 kts 271°
2026-05-05 14:54 51.64202 0.27612 35940 ft 462 kts 271°
2026-05-05 14:54 51.64502 0.17302 35941 ft 462 kts 268°
2026-05-05 14:55 51.63744 0.07136 35940 ft 460 kts 258°
2026-05-05 14:55 51.62660 -0.02955 35941 ft 460 kts 258°
2026-05-05 14:56 51.61887 -0.13132 35944 ft 462 kts 269°
2026-05-05 14:56 51.62399 -0.23417 35939 ft 464 kts 274°
2026-05-05 14:57 51.63035 -0.33702 35940 ft 464 kts 274°
2026-05-05 14:57 51.63658 -0.44004 35942 ft 464 kts 274°
2026-05-05 14:58 51.64271 -0.54307 35944 ft 463 kts 274°
2026-05-05 14:58 51.64871 -0.64575 35943 ft 463 kts 274°
2026-05-05 14:59 51.65461 -0.74831 35951 ft 463 kts 274°
2026-05-05 14:59 51.66046 -0.85174 35945 ft 464 kts 274°
2026-05-05 15:00 51.66523 -0.93724 35947 ft 465 kts 274°
2026-05-05 15:00 51.67184 -1.05774 35948 ft 464 kts 274°
2026-05-05 15:01 51.67739 -1.16088 35954 ft 462 kts 274°
2026-05-05 15:01 51.68283 -1.26354 35954 ft 462 kts 274°
2026-05-05 15:02 51.68818 -1.36618 35957 ft 461 kts 274°
2026-05-05 15:02 51.69342 -1.46836 35961 ft 462 kts 274°
2026-05-05 15:03 51.69859 -1.57114 35963 ft 461 kts 274°
2026-05-05 15:03 51.70608 -1.67318 35965 ft 462 kts 282°
2026-05-05 15:04 51.72953 -1.77010 35975 ft 464 kts 295°
2026-05-05 15:04 51.75860 -1.86261 35972 ft 464 kts 295°
2026-05-05 15:05 51.80180 -2.00163 35975 ft 464 kts 295°
2026-05-05 15:06 51.82628 -2.09709 35793 ft 461 kts 289°
2026-05-05 15:06 51.83744 -2.14526 35925 ft 462 kts 289°
2026-05-05 15:06 51.84866 -2.19376 35960 ft 465 kts 289°
2026-05-05 15:07 51.87112 -2.29122 35975 ft 464 kts 290°
2026-05-05 15:07 51.89351 -2.38884 35970 ft 463 kts 290°
2026-05-05 15:08 51.91569 -2.48597 35971 ft 462 kts 290°
2026-05-05 15:08 51.93792 -2.58376 35976 ft 464 kts 291°
2026-05-05 15:09 51.96014 -2.68198 35977 ft 465 kts 290°
2026-05-05 15:09 51.98222 -2.78001 35981 ft 465 kts 290°
2026-05-05 15:10 52.00416 -2.87786 35986 ft 466 kts 290°
2026-05-05 15:10 52.02610 -2.97619 35983 ft 466 kts 290°
2026-05-05 15:11 52.04795 -3.07458 35987 ft 465 kts 290°
2026-05-05 15:11 52.06977 -3.17332 35991 ft 465 kts 290°
2026-05-05 15:12 52.09146 -3.27192 35999 ft 465 kts 290°
2026-05-05 15:12 52.11310 -3.37074 35993 ft 466 kts 290°
2026-05-05 15:13 52.13475 -3.47011 36003 ft 466 kts 290°
2026-05-05 15:13 52.15623 -3.56915 36001 ft 465 kts 290°
2026-05-05 15:14 52.17754 -3.66793 36006 ft 464 kts 290°
2026-05-05 15:14 52.19884 -3.76710 36015 ft 464 kts 290°
2026-05-05 15:15 52.21989 -3.86561 36011 ft 464 kts 290°
2026-05-05 15:15 52.24096 -3.96469 36018 ft 463 kts 290°
2026-05-05 15:16 52.26185 -4.06339 36013 ft 463 kts 290°
2026-05-05 15:16 52.28281 -4.16290 36025 ft 462 kts 290°
2026-05-05 15:17 52.30347 -4.26151 36034 ft 461 kts 290°
2026-05-05 15:17 52.32400 -4.35999 36027 ft 462 kts 290°
2026-05-05 15:18 52.34446 -4.45857 36031 ft 459 kts 290°
2026-05-05 15:18 52.36485 -4.55728 36035 ft 458 kts 290°
2026-05-05 15:19 52.38501 -4.65542 36041 ft 457 kts 289°
2026-05-05 15:19 52.40523 -4.75436 36039 ft 458 kts 289°
2026-05-05 15:20 52.42511 -4.85206 36041 ft 456 kts 289°
2026-05-05 15:20 52.44509 -4.95075 36040 ft 457 kts 289°
2026-05-05 15:21 52.46486 -5.04894 36041 ft 456 kts 289°
2026-05-05 15:21 52.48457 -5.14726 36044 ft 456 kts 288°
2026-05-05 15:22 52.50424 -5.24590 36046 ft 455 kts 288°
2026-05-05 15:22 52.52369 -5.34399 36042 ft 455 kts 288°
2026-05-05 15:23 52.54313 -5.44246 36046 ft 455 kts 288°
2026-05-05 15:23 52.56579 -5.53908 36047 ft 453 kts 297°
2026-05-05 15:24 52.59471 -5.63038 36043 ft 454 kts 298°
2026-05-05 15:24 52.62375 -5.72257 36050 ft 454 kts 297°
2026-05-05 15:25 52.65252 -5.81471 36055 ft 454 kts 297°
2026-05-05 15:25 52.68108 -5.90672 36050 ft 453 kts 296°
2026-05-05 15:26 52.70963 -5.99919 36051 ft 454 kts 296°
2026-05-05 15:26 52.73795 -6.09133 36051 ft 455 kts 296°
2026-05-05 15:27 52.76637 -6.18418 36054 ft 453 kts 296°
2026-05-05 15:27 52.79451 -6.27651 36046 ft 452 kts 296°
2026-05-05 15:28 52.82257 -6.36888 36043 ft 453 kts 296°
2026-05-05 15:28 52.85058 -6.46149 36040 ft 452 kts 296°
2026-05-05 15:29 52.87848 -6.55407 36041 ft 452 kts 296°
2026-05-05 15:29 52.90635 -6.64694 36040 ft 453 kts 296°
2026-05-05 15:30 52.93433 -6.74052 36045 ft 453 kts 296°
2026-05-05 15:30 52.96215 -6.83394 36049 ft 453 kts 296°
2026-05-05 15:31 52.98976 -6.92703 36046 ft 452 kts 296°
2026-05-05 15:31 53.01740 -7.02056 36053 ft 452 kts 296°
2026-05-05 15:32 53.04493 -7.11411 36054 ft 452 kts 296°
2026-05-05 15:32 53.07240 -7.20779 36053 ft 452 kts 296°
2026-05-05 15:33 53.09970 -7.30128 36048 ft 452 kts 296°
2026-05-05 15:33 53.12697 -7.39506 36055 ft 452 kts 296°
2026-05-05 15:34 53.15419 -7.48901 36059 ft 452 kts 296°
2026-05-05 15:34 53.18145 -7.58349 36059 ft 452 kts 296°
2026-05-05 15:35 53.20837 -7.67718 36062 ft 451 kts 295°
2026-05-05 15:35 53.23531 -7.77129 36070 ft 450 kts 295°
2026-05-05 15:36 53.26224 -7.86574 36070 ft 450 kts 295°
2026-05-05 15:36 53.28882 -7.95936 36067 ft 449 kts 295°
2026-05-05 15:37 53.31538 -8.05326 36069 ft 449 kts 295°
2026-05-05 15:37 53.34199 -8.14772 36070 ft 449 kts 295°
2026-05-05 15:38 53.36838 -8.24180 36070 ft 449 kts 295°
2026-05-05 15:38 53.39484 -8.33651 36071 ft 450 kts 295°
2026-05-05 15:39 53.42108 -8.43079 36074 ft 449 kts 295°
2026-05-05 15:39 53.44734 -8.52555 36078 ft 449 kts 295°
2026-05-05 15:40 53.47342 -8.62003 36077 ft 449 kts 295°
2026-05-05 15:40 53.49936 -8.71443 36084 ft 448 kts 294°
2026-05-05 15:41 53.52521 -8.80884 36085 ft 448 kts 294°
2026-05-05 15:41 53.55109 -8.90377 36090 ft 447 kts 294°
2026-05-05 15:42 53.57679 -8.99846 36086 ft 448 kts 294°
2026-05-05 15:42 53.60245 -9.09336 36088 ft 448 kts 294°
2026-05-05 15:43 53.62804 -9.18839 36095 ft 447 kts 294°
2026-05-05 15:43 53.65354 -9.28347 36091 ft 447 kts 294°
2026-05-05 15:44 53.67898 -9.37874 36092 ft 447 kts 294°
2026-05-05 15:44 53.70432 -9.47401 36094 ft 446 kts 294°
2026-05-05 15:45 53.72953 -9.56921 36099 ft 446 kts 294°
2026-05-05 15:45 53.75454 -9.66406 36097 ft 445 kts 293°
2026-05-05 15:46 53.77962 -9.75958 36096 ft 445 kts 293°
2026-05-05 15:46 53.80465 -9.85530 36106 ft 446 kts 293°
2026-05-05 15:47 53.82962 -9.95122 36107 ft 445 kts 293°
2026-05-05 15:47 53.85449 -10.04714 36106 ft 446 kts 293°
2026-05-05 15:48 53.87918 -10.14278 36109 ft 446 kts 293°
2026-05-05 15:48 53.90390 -10.23894 36112 ft 446 kts 293°
2026-05-05 15:49 53.92831 -10.33431 36122 ft 445 kts 293°
2026-05-05 15:49 53.95288 -10.43068 36117 ft 444 kts 293°
2026-05-05 15:50 53.97720 -10.52651 36116 ft 445 kts 293°
2026-05-05 15:50 54.00146 -10.62252 36113 ft 444 kts 293°
2026-05-05 15:51 54.02559 -10.71844 36110 ft 444 kts 292°
2026-05-05 15:51 54.04968 -10.81460 36111 ft 444 kts 292°
2026-05-05 15:52 54.07384 -10.91148 36110 ft 445 kts 292°
2026-05-05 15:52 54.09774 -11.00770 36116 ft 445 kts 292°
2026-05-05 15:53 54.12168 -11.10452 36113 ft 444 kts 292°
2026-05-05 15:53 54.14554 -11.20144 36123 ft 443 kts 292°
2026-05-05 15:54 54.16915 -11.29781 36128 ft 443 kts 292°
2026-05-05 15:54 54.19270 -11.39433 36130 ft 443 kts 292°
2026-05-05 15:55 54.21616 -11.49089 36135 ft 443 kts 292°
2026-05-05 15:55 54.23967 -11.58811 36137 ft 443 kts 292°
2026-05-05 15:56 54.26311 -11.68547 36145 ft 444 kts 291°
2026-05-05 15:56 54.28631 -11.78227 36148 ft 443 kts 291°
2026-05-05 15:57 54.30953 -11.87957 36153 ft 443 kts 291°
2026-05-05 15:57 54.33269 -11.97707 36153 ft 442 kts 291°
2026-05-05 15:58 54.35563 -12.07407 36155 ft 442 kts 291°
2026-05-05 15:58 54.37854 -12.17139 36148 ft 442 kts 291°
2026-05-05 15:59 54.40128 -12.26846 36153 ft 442 kts 291°
2026-05-05 15:59 54.42420 -12.36669 36152 ft 442 kts 291°
2026-05-05 16:00 54.44677 -12.46387 36158 ft 443 kts 291°
2026-05-05 16:00 54.46944 -12.56195 36153 ft 443 kts 291°
2026-05-05 16:01 54.49205 -12.66027 36148 ft 442 kts 290°
2026-05-05 16:01 54.51452 -12.75835 36156 ft 442 kts 290°
2026-05-05 16:02 54.53678 -12.85599 36152 ft 442 kts 290°
2026-05-05 16:02 54.55902 -12.95403 36484 ft 443 kts 290°
2026-05-05 16:02 54.57023 -13.00361 36284 ft 443 kts 290°
2026-05-05 16:03 54.58120 -13.05221 36340 ft 435 kts 290°
2026-05-05 16:03 54.60332 -13.15064 36179 ft 441 kts 290°
2026-05-05 16:04 54.62525 -13.24864 36160 ft 441 kts 290°
2026-05-05 16:04 54.64711 -13.34679 36159 ft 440 kts 290°
2026-05-05 16:05 54.66883 -13.44478 36161 ft 440 kts 290°
2026-05-05 16:05 54.69052 -13.54312 36167 ft 440 kts 290°
2026-05-05 16:06 54.71225 -13.64209 36161 ft 440 kts 290°
2026-05-05 16:06 54.73370 -13.74027 36168 ft 441 kts 290°
2026-05-05 16:07 54.75523 -13.83928 36173 ft 441 kts 290°
2026-05-05 16:07 54.77661 -13.93808 36175 ft 440 kts 290°
2026-05-05 16:08 54.79789 -14.03687 36176 ft 440 kts 290°
2026-05-05 16:08 54.81913 -14.13593 36177 ft 440 kts 290°
2026-05-05 16:09 54.84043 -14.23579 36174 ft 441 kts 290°
2026-05-05 16:09 54.86154 -14.33526 36174 ft 441 kts 290°
2026-05-05 16:10 54.88257 -14.43483 36173 ft 442 kts 290°
2026-05-05 16:10 54.90343 -14.53408 36175 ft 441 kts 290°
2026-05-05 16:11 54.92432 -14.63393 36174 ft 441 kts 290°
2026-05-05 16:12 54.96582 -14.83388 36178 ft 443 kts 289°
2026-05-05 16:13 55.01902 -15.08415 36171 ft 443 kts 291°
2026-05-05 16:13 55.04145 -15.18420 36171 ft 443 kts 291°
2026-05-05 16:14 55.08588 -15.38363 36178 ft 444 kts 291°
2026-05-05 16:15 55.13011 -15.58404 36182 ft 444 kts 291°
2026-05-05 16:16 55.17406 -15.78507 36189 ft 444 kts 290°
2026-05-05 16:17 55.20667 -15.93549 36193 ft 444 kts 290°
2026-05-05 16:18 55.23928 -16.08707 36193 ft 445 kts 291°
2026-05-05 16:19 55.27157 -16.23827 36193 ft 445 kts 291°
2026-05-05 16:19 55.30379 -16.39025 36198 ft 445 kts 291°
2026-05-05 16:20 55.34639 -16.59296 36194 ft 444 kts 291°
2026-05-05 16:22 55.39924 -16.84734 36203 ft 444 kts 290°
2026-05-05 16:23 55.44106 -17.05092 36191 ft 445 kts 290°
2026-05-05 16:23 55.47221 -17.20391 36198 ft 444 kts 290°
2026-05-05 16:24 55.49284 -17.30588 36201 ft 444 kts 290°
2026-05-05 16:25 55.52362 -17.45906 36200 ft 443 kts 290°
2026-05-05 16:25 55.55417 -17.61225 36201 ft 443 kts 290°
2026-05-05 16:26 55.59468 -17.81729 36208 ft 443 kts 290°
2026-05-05 16:27 55.61490 -17.92041 36208 ft 443 kts 290°
2026-05-05 16:27 55.63477 -18.02233 36210 ft 443 kts 290°
2026-05-05 16:28 55.65479 -18.12552 36222 ft 442 kts 290°
2026-05-05 16:28 55.67451 -18.22774 36218 ft 443 kts 290°
2026-05-05 16:29 55.69430 -18.33084 36214 ft 443 kts 290°
2026-05-05 16:29 55.71395 -18.43381 36218 ft 443 kts 290°
2026-05-05 16:30 55.73363 -18.53745 36220 ft 444 kts 290°
2026-05-05 16:30 55.75312 -18.64065 36221 ft 443 kts 290°
2026-05-05 16:31 55.77249 -18.74383 36229 ft 443 kts 290°
2026-05-05 16:31 55.79180 -18.84718 36230 ft 443 kts 290°
2026-05-05 16:32 55.81103 -18.95073 36234 ft 443 kts 290°
2026-05-05 16:32 55.83006 -19.05374 36233 ft 443 kts 290°
2026-05-05 16:33 55.84913 -19.15752 36234 ft 444 kts 290°
2026-05-05 16:33 55.86812 -19.26149 36234 ft 443 kts 290°
2026-05-05 16:34 55.88703 -19.36558 36233 ft 442 kts 290°
2026-05-05 16:34 55.90583 -19.46968 36232 ft 443 kts 290°
2026-05-05 16:35 55.92454 -19.57383 36229 ft 443 kts 290°
2026-05-05 16:35 55.94308 -19.67762 36228 ft 443 kts 290°
2026-05-05 16:36 55.96156 -19.78167 36230 ft 443 kts 290°
2026-05-05 16:36 55.98003 -19.88626 36233 ft 443 kts 290°
2026-05-05 16:37 55.99684 -19.99220 36230 ft 447 kts 283°
2026-05-05 16:37 56.00310 -20.10196 36236 ft 450 kts 278°
2026-05-05 16:38 56.00794 -20.21295 36234 ft 449 kts 278°
2026-05-05 16:38 56.01244 -20.32398 36233 ft 449 kts 278°
2026-05-05 16:39 56.01673 -20.43503 36233 ft 449 kts 278°
2026-05-05 16:39 56.02083 -20.54528 36231 ft 449 kts 278°
2026-05-05 16:40 56.02481 -20.65618 36227 ft 449 kts 277°
2026-05-05 16:40 56.02870 -20.76741 36232 ft 450 kts 277°
2026-05-05 16:41 56.03247 -20.87867 36235 ft 450 kts 277°
2026-05-05 16:41 56.03612 -20.98937 36226 ft 450 kts 277°
2026-05-05 16:42 56.03970 -21.10102 36226 ft 451 kts 277°
2026-05-05 16:42 56.04317 -21.21227 36228 ft 451 kts 277°
2026-05-05 16:43 56.04652 -21.32344 36237 ft 450 kts 277°
2026-05-05 16:43 56.04980 -21.43516 36235 ft 450 kts 277°
2026-05-05 16:44 56.05297 -21.54670 36236 ft 450 kts 278°
2026-05-05 16:44 56.05601 -21.65713 36238 ft 449 kts 277°
2026-05-05 16:45 56.05899 -21.76920 36234 ft 450 kts 277°
2026-05-05 16:45 56.06185 -21.88048 36237 ft 451 kts 277°
2026-05-05 16:46 56.06462 -21.99215 36236 ft 451 kts 277°
2026-05-05 16:46 56.06728 -22.10359 36246 ft 451 kts 277°
2026-05-05 16:47 56.06984 -22.21484 36246 ft 450 kts 277°
2026-05-05 16:47 56.07229 -22.32593 36233 ft 450 kts 277°
2026-05-05 16:48 56.07465 -22.43736 36232 ft 451 kts 277°
2026-05-05 16:48 56.07692 -22.54952 36238 ft 450 kts 277°
2026-05-05 16:49 56.07908 -22.66071 36017 ft 449 kts 276°
2026-05-05 16:49 56.08012 -22.71663 36201 ft 450 kts 276°
2026-05-05 16:49 56.08114 -22.77226 36235 ft 454 kts 276°
2026-05-05 16:50 56.08311 -22.88481 36237 ft 452 kts 276°
2026-05-05 16:50 56.08497 -22.99647 36236 ft 453 kts 276°
2026-05-05 16:51 56.08674 -23.10901 36237 ft 452 kts 276°
2026-05-05 16:51 56.08841 -23.22091 36233 ft 453 kts 276°
2026-05-05 16:52 56.08997 -23.33330 36229 ft 452 kts 276°
2026-05-05 16:52 56.09142 -23.44495 36239 ft 453 kts 276°
2026-05-05 16:53 56.09278 -23.55695 36236 ft 453 kts 276°
2026-05-05 16:53 56.09404 -23.66958 36239 ft 453 kts 276°
2026-05-05 16:54 56.09520 -23.78176 36247 ft 454 kts 276°
2026-05-05 16:54 56.09625 -23.89440 36231 ft 453 kts 276°
2026-05-05 16:55 56.09721 -24.00671 36240 ft 454 kts 276°
2026-05-05 16:55 56.09805 -24.11873 36239 ft 453 kts 276°
2026-05-05 16:56 56.09880 -24.23133 36237 ft 451 kts 276°
2026-05-05 16:56 56.09945 -24.34292 36241 ft 452 kts 276°
2026-05-05 16:57 56.09999 -24.45552 36240 ft 452 kts 276°
2026-05-05 16:57 56.10044 -24.56748 36247 ft 453 kts 276°
2026-05-05 16:58 56.10078 -24.67920 36243 ft 451 kts 275°
2026-05-05 16:58 56.10102 -24.79191 36257 ft 453 kts 275°
2026-05-05 16:59 56.10115 -24.90414 36260 ft 452 kts 275°
2026-05-05 16:59 56.10119 -25.01620 36254 ft 453 kts 275°
2026-05-05 17:00 56.10112 -25.12840 36250 ft 450 kts 275°
2026-05-05 17:00 56.10096 -25.23968 36245 ft 451 kts 275°
2026-05-05 17:01 56.10069 -25.35155 36250 ft 451 kts 275°
2026-05-05 17:01 56.10033 -25.46359 36247 ft 451 kts 275°
2026-05-05 17:02 56.09986 -25.57537 36247 ft 451 kts 275°
2026-05-05 17:02 56.09929 -25.68662 36247 ft 451 kts 274°
2026-05-05 17:03 56.09861 -25.79894 36249 ft 451 kts 274°
2026-05-05 17:03 56.09784 -25.91032 36250 ft 450 kts 274°
2026-05-05 17:04 56.09697 -26.02213 36251 ft 450 kts 274°
2026-05-05 17:04 56.09600 -26.13362 36248 ft 449 kts 274°
2026-05-05 17:05 56.09493 -26.24469 36253 ft 449 kts 274°
2026-05-05 17:05 56.09376 -26.35589 36263 ft 449 kts 274°
2026-05-05 17:06 56.09249 -26.46743 36260 ft 448 kts 274°
2026-05-05 17:06 56.09113 -26.57769 36258 ft 448 kts 274°
2026-05-05 17:07 56.08966 -26.68914 36261 ft 448 kts 273°
2026-05-05 17:07 56.08810 -26.80037 36260 ft 448 kts 273°
2026-05-05 17:08 56.08644 -26.91076 36262 ft 447 kts 273°
2026-05-05 17:08 56.08467 -27.02208 36260 ft 447 kts 273°
2026-05-05 17:09 56.08282 -27.13243 36248 ft 447 kts 273°
2026-05-05 17:09 56.08086 -27.24313 36250 ft 446 kts 273°
2026-05-05 17:10 56.07881 -27.35293 36248 ft 445 kts 273°
2026-05-05 17:10 56.07667 -27.46325 36248 ft 446 kts 273°
2026-05-05 17:11 56.07441 -27.57407 36250 ft 446 kts 273°
2026-05-05 17:11 56.07207 -27.68437 36262 ft 447 kts 272°
2026-05-05 17:12 56.06961 -27.79550 36263 ft 447 kts 272°
2026-05-05 17:12 56.06706 -27.90593 36258 ft 447 kts 272°
2026-05-05 17:13 56.06442 -28.01596 36249 ft 446 kts 272°
2026-05-05 17:13 56.06168 -28.12602 36253 ft 445 kts 272°
2026-05-05 17:14 56.05883 -28.23687 36250 ft 445 kts 271°
2026-05-05 17:14 56.05592 -28.34635 36246 ft 445 kts 271°
2026-05-05 17:15 56.05286 -28.45718 36249 ft 446 kts 271°
2026-05-05 17:15 56.04974 -28.56693 36256 ft 446 kts 271°
2026-05-05 17:16 56.04651 -28.67722 36260 ft 446 kts 271°
2026-05-05 17:16 56.04316 -28.78799 36261 ft 447 kts 270°
2026-05-05 17:17 56.03972 -28.89848 36264 ft 447 kts 270°
2026-05-05 17:17 56.03619 -29.00868 36264 ft 447 kts 270°
2026-05-05 17:18 56.03257 -29.11864 36260 ft 446 kts 270°
2026-05-05 17:18 56.02882 -29.22963 36264 ft 447 kts 270°
2026-05-05 17:19 56.02501 -29.33948 36264 ft 447 kts 270°
2026-05-05 17:19 56.02107 -29.45015 36260 ft 448 kts 270°
2026-05-05 17:20 56.01703 -29.56068 36257 ft 448 kts 270°
2026-05-05 17:20 56.01290 -29.67102 36262 ft 447 kts 269°
2026-05-05 17:21 56.00867 -29.78145 36269 ft 448 kts 269°
2026-05-05 17:22 56.00211 -29.94764 36260 ft 449 kts 269°
2026-05-05 17:22 55.99941 -30.05794 36256 ft 446 kts 277°
2026-05-05 17:23 56.00494 -30.16809 36262 ft 446 kts 278°
2026-05-05 17:23 56.01006 -30.27840 36263 ft 447 kts 277°
2026-05-05 17:24 56.01466 -30.38821 36262 ft 446 kts 277°
2026-05-05 17:24 56.01896 -30.49859 36261 ft 447 kts 276°
2026-05-05 17:25 56.02306 -30.60902 36263 ft 448 kts 276°
2026-05-05 17:25 56.02701 -30.71971 36263 ft 449 kts 275°
2026-05-05 17:26 56.03082 -30.83017 36261 ft 449 kts 275°
2026-05-05 17:26 56.03456 -30.94173 36262 ft 450 kts 275°
2026-05-05 17:27 56.03816 -31.05251 36261 ft 450 kts 275°
2026-05-05 17:27 56.04167 -31.16388 36259 ft 452 kts 275°
2026-05-05 17:28 56.04511 -31.27606 36252 ft 451 kts 275°
2026-05-05 17:28 56.04841 -31.38716 36250 ft 451 kts 275°
2026-05-05 17:29 56.05163 -31.49899 36247 ft 453 kts 275°
2026-05-05 17:29 56.05476 -31.61110 36248 ft 453 kts 275°
2026-05-05 17:30 56.05777 -31.72295 36248 ft 453 kts 274°
2026-05-05 17:30 56.06070 -31.83525 36244 ft 454 kts 274°
2026-05-05 17:31 56.06354 -31.94814 36237 ft 454 kts 274°
2026-05-05 17:31 56.06627 -32.06062 36237 ft 455 kts 274°
2026-05-05 17:32 56.06889 -32.17302 36228 ft 455 kts 274°
2026-05-05 17:32 56.07142 -32.28572 36220 ft 456 kts 273°
2026-05-05 17:33 56.07384 -32.39841 36225 ft 458 kts 273°
2026-05-05 17:33 56.07618 -32.51196 36229 ft 458 kts 273°
2026-05-05 17:34 56.07841 -32.62559 36226 ft 460 kts 273°
2026-05-05 17:34 56.08055 -32.73996 36222 ft 460 kts 272°
2026-05-05 17:35 56.08257 -32.85347 36221 ft 457 kts 272°
2026-05-05 17:35 56.08448 -32.96655 36222 ft 457 kts 272°
2026-05-05 17:36 56.08630 -33.08020 36222 ft 459 kts 272°
2026-05-05 17:36 56.08802 -33.19437 36212 ft 461 kts 271°
2026-05-05 17:37 56.08963 -33.30832 36217 ft 461 kts 272°
2026-05-05 17:37 56.09114 -33.42276 36218 ft 462 kts 272°
2026-05-05 17:38 56.09255 -33.53717 36215 ft 464 kts 271°
2026-05-05 17:38 56.09385 -33.65197 36206 ft 464 kts 270°
2026-05-05 17:39 56.09506 -33.76716 36203 ft 464 kts 270°
2026-05-05 17:39 56.09615 -33.88251 36207 ft 464 kts 270°
2026-05-05 17:40 56.09713 -33.99707 36205 ft 466 kts 270°
2026-05-05 17:40 56.09801 -34.11271 36197 ft 466 kts 270°
2026-05-05 17:41 56.09879 -34.22841 36197 ft 467 kts 270°
2026-05-05 17:41 56.09946 -34.34394 36189 ft 467 kts 270°
2026-05-05 17:42 56.10002 -34.46014 36188 ft 468 kts 270°
2026-05-05 17:42 56.10047 -34.57688 36189 ft 470 kts 269°
2026-05-05 17:43 56.10081 -34.69324 36185 ft 470 kts 269°
2026-05-05 17:43 56.10105 -34.80921 36183 ft 471 kts 268°
2026-05-05 17:44 56.10117 -34.92625 36183 ft 471 kts 268°
2026-05-05 17:44 56.10119 -35.04322 36173 ft 471 kts 268°
2026-05-05 17:45 56.10109 -35.15972 36174 ft 471 kts 268°
2026-05-05 17:45 56.10088 -35.27681 36173 ft 472 kts 268°
2026-05-05 17:46 56.10057 -35.39332 36175 ft 473 kts 268°
2026-05-05 17:46 56.10014 -35.51081 36168 ft 474 kts 268°
2026-05-05 17:47 56.09960 -35.62836 36160 ft 474 kts 268°
2026-05-05 17:47 56.09895 -35.74520 36144 ft 474 kts 266°
2026-05-05 17:48 56.09818 -35.86366 36141 ft 475 kts 266°
2026-05-05 17:48 56.09730 -35.98128 36127 ft 476 kts 266°
2026-05-05 17:49 56.09631 -36.09887 36130 ft 476 kts 266°
2026-05-05 17:49 56.09520 -36.21748 36129 ft 477 kts 266°
2026-05-05 17:50 56.09398 -36.33570 36135 ft 478 kts 266°
2026-05-05 17:50 56.09265 -36.45417 36114 ft 478 kts 266°
2026-05-05 17:51 56.09120 -36.57267 36118 ft 479 kts 266°
2026-05-05 17:51 56.08963 -36.69173 36117 ft 479 kts 265°
2026-05-05 17:52 56.08795 -36.81021 36113 ft 480 kts 265°
2026-05-05 17:52 56.08614 -36.92975 36118 ft 481 kts 265°
2026-05-05 17:53 56.08423 -37.04868 36111 ft 482 kts 265°
2026-05-05 17:53 56.08219 -37.16809 36106 ft 482 kts 264°
2026-05-05 17:54 56.08004 -37.28789 36095 ft 482 kts 265°
2026-05-05 17:54 56.07777 -37.40735 36097 ft 482 kts 264°
2026-05-05 17:55 56.07538 -37.52705 36091 ft 483 kts 264°
2026-05-05 17:55 56.07288 -37.64627 36086 ft 485 kts 264°
2026-05-05 17:56 56.07026 -37.76658 36101 ft 484 kts 263°
2026-05-05 17:56 56.06751 -37.88648 36078 ft 483 kts 263°
2026-05-05 17:57 56.06465 -38.00642 36074 ft 485 kts 263°
2026-05-05 17:57 56.06166 -38.12664 36089 ft 486 kts 263°
2026-05-05 17:58 56.05858 -38.24640 36081 ft 487 kts 263°
2026-05-05 17:58 56.05534 -38.36724 36080 ft 487 kts 263°
2026-05-05 17:59 56.05201 -38.48751 36073 ft 487 kts 263°
2026-05-05 17:59 56.04855 -38.60796 36095 ft 488 kts 263°
2026-05-05 18:00 56.04499 -38.72773 36089 ft 488 kts 262°
2026-05-05 18:00 56.04126 -38.84906 36067 ft 491 kts 262°
2026-05-05 18:01 56.03743 -38.97031 36093 ft 491 kts 262°
2026-05-05 18:01 56.03350 -39.09092 36084 ft 490 kts 262°
2026-05-05 18:02 56.02943 -39.21182 36063 ft 488 kts 262°
2026-05-05 18:02 56.02525 -39.33265 36076 ft 489 kts 262°
2026-05-05 18:03 56.02095 -39.45322 36077 ft 490 kts 261°
2026-05-05 18:03 56.01653 -39.57408 36065 ft 491 kts 261°
2026-05-05 18:04 56.01197 -39.69556 36083 ft 487 kts 260°
2026-05-05 18:04 56.00735 -39.81530 36067 ft 489 kts 260°
2026-05-05 18:05 56.00258 -39.93603 36062 ft 489 kts 260°
2026-05-05 18:05 55.99657 -40.05599 36057 ft 489 kts 258°
2026-05-05 18:06 55.98967 -40.17582 36062 ft 487 kts 258°
2026-05-05 18:06 55.98258 -40.29601 36030 ft 488 kts 258°
2026-05-05 18:06 55.97898 -40.35616 36163 ft 488 kts 258°
2026-05-05 18:07 55.97536 -40.41604 36068 ft 486 kts 258°
2026-05-05 18:07 55.96803 -40.53560 36063 ft 490 kts 259°
2026-05-05 18:08 55.96056 -40.65561 36041 ft 488 kts 257°
2026-05-05 18:08 55.95297 -40.77557 36047 ft 487 kts 257°
2026-05-05 18:09 55.94529 -40.89489 36038 ft 487 kts 258°
2026-05-05 18:09 55.93749 -41.01429 36041 ft 488 kts 258°
2026-05-05 18:10 55.92952 -41.13430 36034 ft 488 kts 258°
2026-05-05 18:10 55.92147 -41.25390 36027 ft 488 kts 258°
2026-05-05 18:11 55.91332 -41.37321 36027 ft 489 kts 258°
2026-05-05 18:11 55.90506 -41.49244 36034 ft 486 kts 258°
2026-05-05 18:12 55.89673 -41.61104 36041 ft 485 kts 258°
2026-05-05 18:12 55.88824 -41.73005 36034 ft 485 kts 257°
2026-05-05 18:13 55.87968 -41.84831 36022 ft 485 kts 258°
2026-05-05 18:13 55.87102 -41.96651 36022 ft 485 kts 258°
2026-05-05 18:14 55.86219 -42.08534 36038 ft 485 kts 258°
2026-05-05 18:14 55.85325 -42.20410 36025 ft 484 kts 258°
2026-05-05 18:15 55.84428 -42.32175 36023 ft 483 kts 258°
2026-05-05 18:15 55.83517 -42.43964 36021 ft 483 kts 258°
2026-05-05 18:16 55.82595 -42.55745 36017 ft 484 kts 258°
2026-05-05 18:16 55.81665 -42.67472 36014 ft 484 kts 257°
2026-05-05 18:17 55.80723 -42.79215 36013 ft 482 kts 257°
2026-05-05 18:17 55.79766 -42.90997 36006 ft 482 kts 257°
2026-05-05 18:18 55.78799 -43.02755 35998 ft 482 kts 257°
2026-05-05 18:18 55.77829 -43.14420 35999 ft 480 kts 257°
2026-05-05 18:19 55.76843 -43.26126 35998 ft 482 kts 257°
2026-05-05 18:19 55.75845 -43.37831 35979 ft 481 kts 257°
2026-05-05 18:20 55.74838 -43.49511 35975 ft 480 kts 258°
2026-05-05 18:20 55.73825 -43.61131 35973 ft 481 kts 257°
2026-05-05 18:21 55.72797 -43.72792 35961 ft 480 kts 257°
2026-05-05 18:21 55.71758 -43.84438 35952 ft 480 kts 257°
2026-05-05 18:22 55.70710 -43.96061 35943 ft 481 kts 257°
2026-05-05 18:22 55.69650 -44.07695 35944 ft 479 kts 257°
2026-05-05 18:23 55.68579 -44.19318 35935 ft 480 kts 257°
2026-05-05 18:23 55.67497 -44.30933 35934 ft 481 kts 257°
2026-05-05 18:24 55.66398 -44.42598 35931 ft 480 kts 257°
2026-05-05 18:24 55.65298 -44.54160 35933 ft 481 kts 257°
2026-05-05 18:25 55.64185 -44.65745 35931 ft 479 kts 256°
2026-05-05 18:25 55.63056 -44.77365 35928 ft 480 kts 256°
2026-05-05 18:26 55.61922 -44.88918 35927 ft 479 kts 256°
2026-05-05 18:26 55.60776 -45.00479 35922 ft 480 kts 256°
2026-05-05 18:27 55.59625 -45.11976 35912 ft 479 kts 256°
2026-05-05 18:27 55.58449 -45.23597 35905 ft 480 kts 256°
2026-05-05 18:28 55.56676 -45.40909 35898 ft 480 kts 256°
2026-05-05 18:28 55.55481 -45.52441 35898 ft 481 kts 256°
2026-05-05 18:29 55.54277 -45.63956 35889 ft 479 kts 257°
2026-05-05 18:29 55.53066 -45.75417 35877 ft 479 kts 256°
2026-05-05 18:30 55.51837 -45.86940 35864 ft 479 kts 256°
2026-05-05 18:30 55.50604 -45.98391 35864 ft 480 kts 256°
2026-05-05 18:31 55.49350 -46.09938 35849 ft 480 kts 256°
2026-05-05 18:31 55.48091 -46.21418 35842 ft 479 kts 256°
2026-05-05 18:32 55.46824 -46.32865 35840 ft 478 kts 256°
2026-05-05 18:32 55.45544 -46.44324 35831 ft 478 kts 256°
2026-05-05 18:33 55.44257 -46.55747 35826 ft 479 kts 256°
2026-05-05 18:33 55.42962 -46.67145 35829 ft 478 kts 255°
2026-05-05 18:34 55.41651 -46.78572 35827 ft 478 kts 255°
2026-05-05 18:34 55.40331 -46.89983 35824 ft 477 kts 255°
2026-05-05 18:35 55.39010 -47.01306 35819 ft 478 kts 255°
2026-05-05 18:35 55.37669 -47.12693 35811 ft 478 kts 255°
2026-05-05 18:36 55.36320 -47.24060 35805 ft 477 kts 255°
2026-05-05 18:36 55.34966 -47.35371 35798 ft 476 kts 255°
2026-05-05 18:37 55.33596 -47.46722 35794 ft 476 kts 255°
2026-05-05 18:37 55.32218 -47.58041 35794 ft 476 kts 255°
2026-05-05 18:38 55.30833 -47.69321 35786 ft 476 kts 255°
2026-05-05 18:38 55.29439 -47.80586 35774 ft 476 kts 255°
2026-05-05 18:39 55.28025 -47.91919 35771 ft 476 kts 255°
2026-05-05 18:39 55.26606 -48.03203 35763 ft 475 kts 255°
2026-05-05 18:40 55.25182 -48.14435 35767 ft 475 kts 255°
2026-05-05 18:40 55.23744 -48.25688 35754 ft 474 kts 255°
2026-05-05 18:41 55.22306 -48.36849 35751 ft 475 kts 255°
2026-05-05 18:41 55.20848 -48.48078 35745 ft 475 kts 255°
2026-05-05 18:42 55.19378 -48.59320 35734 ft 474 kts 255°
2026-05-05 18:42 55.17907 -48.70477 35719 ft 474 kts 254°
2026-05-05 18:43 55.16420 -48.81662 35718 ft 474 kts 254°
2026-05-05 18:43 55.14923 -48.92851 35708 ft 474 kts 254°
2026-05-05 18:44 55.13420 -49.03991 35704 ft 473 kts 254°
2026-05-05 18:44 55.11907 -49.15126 35697 ft 473 kts 255°
2026-05-05 18:45 55.10383 -49.26260 35692 ft 473 kts 255°
2026-05-05 18:45 55.08859 -49.37305 35691 ft 473 kts 255°
2026-05-05 18:46 55.07311 -49.48447 35686 ft 472 kts 255°
2026-05-05 18:46 55.05768 -49.59473 35684 ft 472 kts 255°
2026-05-05 18:47 55.04210 -49.70521 35678 ft 472 kts 254°
2026-05-05 18:47 55.02639 -49.81589 35676 ft 472 kts 254°
2026-05-05 18:48 55.01059 -49.92635 35666 ft 474 kts 254°
2026-05-05 18:48 54.98999 -50.03471 35658 ft 470 kts 246°
2026-05-05 18:49 54.96560 -50.13908 35656 ft 469 kts 246°
2026-05-05 18:49 54.94070 -50.24347 35654 ft 469 kts 246°
2026-05-05 18:50 54.91557 -50.34751 35654 ft 469 kts 246°
2026-05-05 18:50 54.89032 -50.45118 35648 ft 468 kts 246°
2026-05-05 18:51 54.86489 -50.55483 35644 ft 468 kts 246°
2026-05-05 18:51 54.83939 -50.65814 35640 ft 468 kts 245°
2026-05-05 18:52 54.81386 -50.76105 35639 ft 467 kts 245°
2026-05-05 18:52 54.78823 -50.86387 35628 ft 467 kts 245°
2026-05-05 18:53 54.76257 -50.96632 35626 ft 466 kts 245°
2026-05-05 18:53 54.73674 -51.06894 35623 ft 466 kts 245°
2026-05-05 18:54 54.71091 -51.17107 35619 ft 465 kts 245°
2026-05-05 18:54 54.68507 -51.27278 35613 ft 465 kts 245°
2026-05-05 18:55 54.65914 -51.37439 35608 ft 464 kts 245°
2026-05-05 18:55 54.63314 -51.47579 35612 ft 464 kts 245°
2026-05-05 18:56 54.60714 -51.57675 35601 ft 463 kts 245°
2026-05-05 18:56 54.58086 -51.67836 35595 ft 463 kts 245°
2026-05-05 18:57 54.55477 -51.77873 35594 ft 462 kts 245°
2026-05-05 18:57 54.52864 -51.87885 35594 ft 461 kts 245°
2026-05-05 18:58 54.50222 -51.97961 35584 ft 462 kts 245°
2026-05-05 18:58 54.47585 -52.07974 35586 ft 462 kts 245°
2026-05-05 18:59 54.44936 -52.17987 35593 ft 462 kts 245°
2026-05-05 18:59 54.42291 -52.27945 35590 ft 461 kts 245°
2026-05-05 19:00 54.39643 -52.37867 35588 ft 459 kts 245°
2026-05-05 19:00 54.36979 -52.47807 35585 ft 460 kts 245°
2026-05-05 19:01 54.34310 -52.57722 35586 ft 459 kts 245°
2026-05-05 19:01 54.31644 -52.67580 35586 ft 459 kts 244°
2026-05-05 19:02 54.28966 -52.77443 35586 ft 459 kts 244°
2026-05-05 19:02 54.26292 -52.87249 35576 ft 459 kts 244°
2026-05-05 19:03 54.23585 -52.97134 35571 ft 459 kts 244°
2026-05-05 19:03 54.20889 -53.06935 35571 ft 458 kts 244°
2026-05-05 19:04 54.18180 -53.16745 35562 ft 459 kts 244°
2026-05-05 19:04 54.15464 -53.26534 35560 ft 457 kts 245°
2026-05-05 19:05 54.12751 -53.36274 35560 ft 458 kts 245°
2026-05-05 19:05 54.10010 -53.46074 35563 ft 458 kts 245°
2026-05-05 19:06 54.07283 -53.55782 35567 ft 457 kts 245°
2026-05-05 19:06 54.04549 -53.65472 35563 ft 457 kts 244°
2026-05-05 19:07 54.01794 -53.75198 35570 ft 458 kts 244°
2026-05-05 19:07 53.99051 -53.84842 35568 ft 457 kts 244°
2026-05-05 19:08 53.96285 -53.94525 35568 ft 455 kts 244°
2026-05-05 19:08 53.93523 -54.04155 35563 ft 455 kts 244°
2026-05-05 19:09 53.90760 -54.13750 35575 ft 453 kts 244°
2026-05-05 19:09 53.87999 -54.23297 35580 ft 454 kts 244°
2026-05-05 19:10 53.85229 -54.32837 35580 ft 453 kts 244°
2026-05-05 19:10 53.82446 -54.42384 35586 ft 452 kts 245°
2026-05-05 19:11 53.79676 -54.51849 35576 ft 453 kts 245°
2026-05-05 19:11 53.76880 -54.61361 35586 ft 452 kts 245°
2026-05-05 19:12 53.74094 -54.70804 35588 ft 450 kts 244°
2026-05-05 19:12 53.71305 -54.80219 35576 ft 450 kts 244°
2026-05-05 19:13 53.68514 -54.89605 35579 ft 449 kts 244°
2026-05-05 19:13 53.65725 -54.98944 35580 ft 449 kts 244°
2026-05-05 19:14 53.62918 -55.08307 35586 ft 448 kts 244°
2026-05-05 19:14 53.60104 -55.17659 35578 ft 448 kts 244°
2026-05-05 19:15 53.57297 -55.26949 35576 ft 447 kts 244°
2026-05-05 19:15 53.54496 -55.36184 35592 ft 446 kts 244°
2026-05-05 19:16 53.51690 -55.45401 35581 ft 445 kts 244°
2026-05-05 19:16 53.48863 -55.54651 35588 ft 444 kts 244°
2026-05-05 19:17 53.46051 -55.63816 35588 ft 445 kts 245°
2026-05-05 19:17 53.43236 -55.72957 35583 ft 443 kts 244°
2026-05-05 19:18 53.40407 -55.82106 35581 ft 442 kts 244°
2026-05-05 19:18 53.37566 -55.91261 35585 ft 443 kts 244°
2026-05-05 19:19 53.34748 -56.00306 35577 ft 441 kts 244°
2026-05-05 19:19 53.31907 -56.09392 35588 ft 442 kts 244°
2026-05-05 19:20 53.29080 -56.18401 35568 ft 441 kts 244°
2026-05-05 19:20 53.26230 -56.27447 35584 ft 440 kts 244°
2026-05-05 19:21 53.23381 -56.36456 35588 ft 440 kts 244°
2026-05-05 19:21 53.20542 -56.45400 35581 ft 439 kts 244°
2026-05-05 19:22 53.17686 -56.54366 35583 ft 440 kts 244°
2026-05-05 19:22 53.14824 -56.63319 35571 ft 439 kts 244°
2026-05-05 19:23 53.11945 -56.72291 35578 ft 438 kts 244°
2026-05-05 19:23 53.08747 -56.80893 35580 ft 441 kts 237°
2026-05-05 19:24 53.05178 -56.89115 35581 ft 440 kts 236°
2026-05-05 19:24 53.01614 -56.97234 35569 ft 440 kts 236°
2026-05-05 19:25 52.98006 -57.05389 35568 ft 439 kts 236°
2026-05-05 19:25 52.94402 -57.13493 35578 ft 439 kts 236°
2026-05-05 19:26 52.90773 -57.21617 35570 ft 438 kts 236°
2026-05-05 19:26 52.87132 -57.29738 35585 ft 438 kts 236°
2026-05-05 19:27 52.83505 -57.37801 35591 ft 437 kts 237°
2026-05-05 19:27 52.79895 -57.45798 35582 ft 436 kts 237°
2026-05-05 19:28 52.76280 -57.53780 35596 ft 437 kts 237°
2026-05-05 19:28 52.72640 -57.61793 35592 ft 437 kts 237°
2026-05-05 19:29 52.69003 -57.69773 35590 ft 438 kts 236°
2026-05-05 19:29 52.65365 -57.77730 35599 ft 435 kts 236°
2026-05-05 19:30 52.61718 -57.85683 35595 ft 436 kts 236°
2026-05-05 19:30 52.58084 -57.93581 35601 ft 435 kts 236°
2026-05-05 19:31 52.54460 -58.01437 35592 ft 436 kts 236°
2026-05-05 19:31 52.50800 -58.09343 35599 ft 435 kts 236°
2026-05-05 19:32 52.47143 -58.17218 35609 ft 436 kts 236°
2026-05-05 19:32 52.43492 -58.25055 35612 ft 434 kts 237°
2026-05-05 19:33 52.39825 -58.32903 35615 ft 433 kts 237°
2026-05-05 19:33 52.36189 -58.40664 35626 ft 433 kts 237°
2026-05-05 19:34 52.32548 -58.48409 35617 ft 431 kts 237°
2026-05-05 19:35 52.27067 -58.60023 35643 ft 431 kts 237°
2026-05-05 19:35 52.23413 -58.67740 35636 ft 433 kts 236°
2026-05-05 19:36 52.19743 -58.75464 35633 ft 432 kts 236°
2026-05-05 19:36 52.16060 -58.83193 35647 ft 432 kts 236°
2026-05-05 19:37 52.12403 -58.90842 35636 ft 428 kts 236°
2026-05-05 19:37 52.08745 -58.98474 35640 ft 429 kts 236°
2026-05-05 19:38 52.05078 -59.06102 35646 ft 430 kts 236°
2026-05-05 19:38 52.01403 -59.13720 35642 ft 429 kts 236°
2026-05-05 19:39 51.97734 -59.21305 35637 ft 429 kts 237°
2026-05-05 19:39 51.94061 -59.28878 35654 ft 429 kts 237°
2026-05-05 19:40 51.90406 -59.36387 35639 ft 427 kts 237°
2026-05-05 19:40 51.86728 -59.43925 35636 ft 425 kts 236°
2026-05-05 19:41 51.83054 -59.51432 35639 ft 426 kts 237°
2026-05-05 19:41 51.79391 -59.58894 35647 ft 427 kts 237°
2026-05-05 19:42 51.75723 -59.66343 35639 ft 424 kts 236°
2026-05-05 19:42 51.72045 -59.73795 35659 ft 425 kts 236°
2026-05-05 19:43 51.68368 -59.81220 35667 ft 426 kts 236°
2026-05-05 19:43 51.64700 -59.88605 35675 ft 423 kts 237°
2026-05-05 19:44 51.61021 -59.95994 35660 ft 424 kts 236°
2026-05-05 19:44 51.57332 -60.03377 35690 ft 423 kts 237°
2026-05-05 19:45 51.53672 -60.10686 35666 ft 424 kts 237°
2026-05-05 19:45 51.49987 -60.18020 35644 ft 422 kts 237°
2026-05-05 19:46 51.46315 -60.25310 35650 ft 422 kts 237°
2026-05-05 19:46 51.42645 -60.32573 35695 ft 420 kts 237°
2026-05-05 19:47 51.38983 -60.39801 35647 ft 417 kts 237°
2026-05-05 19:47 51.35337 -60.46980 35664 ft 420 kts 237°
2026-05-05 19:48 51.31686 -60.54144 35648 ft 418 kts 237°
2026-05-05 19:48 51.29849 -60.57742 35473 ft 418 kts 237°
2026-05-05 19:48 51.28015 -60.61328 35574 ft 415 kts 237°
2026-05-05 19:49 51.24342 -60.68501 35670 ft 420 kts 236°
2026-05-05 19:49 51.20687 -60.75612 35676 ft 414 kts 236°
2026-05-05 19:50 51.17021 -60.82728 35687 ft 415 kts 236°
2026-05-05 19:50 51.13371 -60.89794 35702 ft 415 kts 236°
2026-05-05 19:51 51.09728 -60.96825 35700 ft 411 kts 236°
2026-05-05 19:51 51.06106 -61.03799 35707 ft 412 kts 236°
2026-05-05 19:52 51.02475 -61.10770 35676 ft 409 kts 236°
2026-05-05 19:52 50.98857 -61.17699 35678 ft 410 kts 236°
2026-05-05 19:53 50.95246 -61.24593 35672 ft 410 kts 237°
2026-05-05 19:53 50.91600 -61.31536 35679 ft 407 kts 236°
2026-05-05 19:54 50.87955 -61.38465 35677 ft 414 kts 236°
2026-05-05 19:54 50.84316 -61.45354 35651 ft 408 kts 236°
2026-05-05 19:55 50.80687 -61.52211 35677 ft 408 kts 236°
2026-05-05 19:55 50.77067 -61.59032 35659 ft 408 kts 236°
2026-05-05 19:56 50.73434 -61.65857 35646 ft 406 kts 236°
2026-05-05 19:56 50.69797 -61.72675 35668 ft 404 kts 236°
2026-05-05 19:57 50.66178 -61.79444 35673 ft 408 kts 236°
2026-05-05 19:57 50.62562 -61.86182 35662 ft 403 kts 236°
2026-05-05 19:58 50.58941 -61.92915 35674 ft 403 kts 236°
2026-05-05 19:58 50.55335 -61.99606 35665 ft 402 kts 235°
2026-05-05 19:59 50.51717 -62.06299 35679 ft 404 kts 236°
2026-05-05 19:59 50.48087 -62.12996 35675 ft 401 kts 235°
2026-05-05 20:00 50.44479 -62.19638 35670 ft 404 kts 235°
2026-05-05 20:00 50.40873 -62.26258 35680 ft 403 kts 235°
2026-05-05 20:01 50.37233 -62.32920 35668 ft 402 kts 235°
2026-05-05 20:01 50.33633 -62.39494 35672 ft 399 kts 235°
2026-05-05 20:02 50.30003 -62.46108 35651 ft 402 kts 236°
2026-05-05 20:02 50.26387 -62.52678 35641 ft 399 kts 235°
2026-05-05 20:03 50.22783 -62.59210 35638 ft 397 kts 235°
2026-05-05 20:03 50.19181 -62.65722 35638 ft 401 kts 235°
2026-05-05 20:04 50.15544 -62.72281 35656 ft 401 kts 234°
2026-05-05 20:04 50.11919 -62.78800 35657 ft 398 kts 235°
2026-05-05 20:05 50.08290 -62.85313 35648 ft 400 kts 234°
2026-05-05 20:05 50.04683 -62.91765 35644 ft 395 kts 234°
2026-05-05 20:06 50.01082 -62.98198 35648 ft 400 kts 234°
2026-05-05 20:06 49.97454 -63.04655 35639 ft 395 kts 234°
2026-05-05 20:07 49.93834 -63.11088 35638 ft 398 kts 234°
2026-05-05 20:07 49.90212 -63.17504 35636 ft 396 kts 234°
2026-05-05 20:08 49.86596 -63.23897 35628 ft 398 kts 234°
2026-05-05 20:08 49.82968 -63.30290 35621 ft 393 kts 234°
2026-05-05 20:09 49.79368 -63.36626 35621 ft 396 kts 234°
2026-05-05 20:09 49.75754 -63.42966 35621 ft 394 kts 234°
2026-05-05 20:10 49.72134 -63.49301 35614 ft 393 kts 234°
2026-05-05 20:10 49.68526 -63.55600 35606 ft 392 kts 234°
2026-05-05 20:11 49.64907 -63.61904 35606 ft 392 kts 234°
2026-05-05 20:11 49.61292 -63.68187 35623 ft 394 kts 233°
2026-05-05 20:12 49.57696 -63.74417 35624 ft 390 kts 233°
2026-05-05 20:12 49.54095 -63.80646 35623 ft 391 kts 233°
2026-05-05 20:13 49.50497 -63.86853 35613 ft 390 kts 233°
2026-05-05 20:13 49.46909 -63.93026 35606 ft 387 kts 233°
2026-05-05 20:14 49.43326 -63.99178 35611 ft 389 kts 233°
2026-05-05 20:14 49.39718 -64.05357 35613 ft 387 kts 233°
2026-05-05 20:15 49.36150 -64.11454 35607 ft 387 kts 233°
2026-05-05 20:15 49.32543 -64.17605 35609 ft 388 kts 232°
2026-05-05 20:16 49.28958 -64.23702 35604 ft 389 kts 232°
2026-05-05 20:16 49.25361 -64.29803 35595 ft 386 kts 233°
2026-05-05 20:17 49.21774 -64.35876 35592 ft 387 kts 233°
2026-05-05 20:17 49.18174 -64.41955 35584 ft 385 kts 233°
2026-05-05 20:18 49.14611 -64.47957 35580 ft 384 kts 232°
2026-05-05 20:18 49.11021 -64.53991 35580 ft 384 kts 233°
2026-05-05 20:19 49.07451 -64.59980 35578 ft 383 kts 232°
2026-05-05 20:19 49.03873 -64.65964 35581 ft 382 kts 232°
2026-05-05 20:20 49.00288 -64.71950 35584 ft 382 kts 232°
2026-05-05 20:20 48.96711 -64.77907 35587 ft 381 kts 232°
2026-05-05 20:21 48.93150 -64.83826 35593 ft 380 kts 232°
2026-05-05 20:21 48.89578 -64.89748 35612 ft 381 kts 232°
2026-05-05 20:22 48.85983 -64.95695 35616 ft 382 kts 231°
2026-05-05 20:22 48.82377 -65.01646 35617 ft 381 kts 231°
2026-05-05 20:23 48.78797 -65.07540 35616 ft 382 kts 231°
2026-05-05 20:23 48.75196 -65.13456 35613 ft 382 kts 231°
2026-05-05 20:24 48.71572 -65.19395 35610 ft 385 kts 231°
2026-05-05 20:24 48.67953 -65.25314 35598 ft 383 kts 232°
2026-05-05 20:25 48.64357 -65.31181 35610 ft 383 kts 231°
2026-05-05 20:25 48.60741 -65.37068 35607 ft 382 kts 231°
2026-05-05 20:26 48.57119 -65.42950 35600 ft 380 kts 231°
2026-05-05 20:26 48.53510 -65.48801 35592 ft 383 kts 231°
2026-05-05 20:27 48.49909 -65.54623 35591 ft 381 kts 231°
2026-05-05 20:27 48.46317 -65.60418 35587 ft 380 kts 231°
2026-05-05 20:28 48.42697 -65.66247 35590 ft 383 kts 230°
2026-05-05 20:28 48.39053 -65.72099 35592 ft 380 kts 230°
2026-05-05 20:29 48.35417 -65.77928 35597 ft 385 kts 231°
2026-05-05 20:29 48.31798 -65.83713 35587 ft 378 kts 230°
2026-05-05 20:30 48.28200 -65.89453 35587 ft 379 kts 230°
2026-05-05 20:30 48.24595 -65.95194 35592 ft 380 kts 230°
2026-05-05 20:31 48.20956 -66.00973 35592 ft 377 kts 231°
2026-05-05 20:31 48.17327 -66.06727 35594 ft 380 kts 230°
2026-05-05 20:32 48.13712 -66.12444 35599 ft 384 kts 231°
2026-05-05 20:32 48.10044 -66.18231 35594 ft 380 kts 231°
2026-05-05 20:33 48.06400 -66.23969 35591 ft 381 kts 231°
2026-05-05 20:33 48.02740 -66.29719 35585 ft 380 kts 231°
2026-05-05 20:34 47.99086 -66.35447 35585 ft 381 kts 230°
2026-05-05 20:34 47.95408 -66.41202 35594 ft 387 kts 230°
2026-05-05 20:35 47.91713 -66.46967 35598 ft 384 kts 230°
2026-05-05 20:35 47.88014 -66.52728 35619 ft 385 kts 230°
2026-05-05 20:36 47.84290 -66.58514 35610 ft 387 kts 230°
2026-05-05 20:36 47.80579 -66.64268 35613 ft 387 kts 230°
2026-05-05 20:37 47.76840 -66.70052 35622 ft 389 kts 229°
2026-05-05 20:37 47.73103 -66.75820 35623 ft 386 kts 229°
2026-05-05 20:38 47.69355 -66.81593 35623 ft 389 kts 229°
2026-05-05 20:38 47.65608 -66.87350 35619 ft 386 kts 229°
2026-05-05 20:39 47.61848 -66.93117 35616 ft 391 kts 230°
2026-05-05 20:39 47.58094 -66.98857 35615 ft 386 kts 230°
2026-05-05 20:40 47.54353 -67.04572 35624 ft 390 kts 229°
2026-05-05 20:40 47.50592 -67.10298 35619 ft 388 kts 229°
2026-05-05 20:41 47.46833 -67.16015 35620 ft 390 kts 229°
2026-05-05 20:41 47.43052 -67.21747 35617 ft 388 kts 230°
2026-05-05 20:42 47.39284 -67.27449 35625 ft 389 kts 230°
2026-05-05 20:42 47.35817 -67.33526 35621 ft 386 kts 240°
2026-05-05 20:43 47.33410 -67.40492 35625 ft 386 kts 245°
2026-05-05 20:43 47.30976 -67.47508 35614 ft 383 kts 244°
2026-05-05 20:44 47.28497 -67.54436 35618 ft 384 kts 244°
2026-05-05 20:44 47.25972 -67.61381 35604 ft 384 kts 243°
2026-05-05 20:45 47.22145 -67.71796 35622 ft 385 kts 243°
2026-05-05 20:45 47.19588 -67.78718 35609 ft 384 kts 243°
2026-05-05 20:46 47.17039 -67.85593 35611 ft 383 kts 242°
2026-05-05 20:46 47.14494 -67.92438 35623 ft 386 kts 242°
2026-05-05 20:47 47.11918 -67.99345 35615 ft 385 kts 242°
2026-05-05 20:47 47.09335 -68.06255 35607 ft 388 kts 242°
2026-05-05 20:48 47.06759 -68.13127 35618 ft 387 kts 242°
2026-05-05 20:48 47.04173 -68.20007 35597 ft 384 kts 242°
2026-05-05 20:49 47.01591 -68.26860 35602 ft 385 kts 242°
2026-05-05 20:49 46.99004 -68.33709 35594 ft 383 kts 241°
2026-05-05 20:50 46.96418 -68.40537 35611 ft 385 kts 242°
2026-05-05 20:50 46.93809 -68.47407 35609 ft 386 kts 241°
2026-05-05 20:51 46.91213 -68.54230 35609 ft 385 kts 241°
2026-05-05 20:51 46.88625 -68.61010 35621 ft 386 kts 241°
2026-05-05 20:52 46.85994 -68.67888 35625 ft 385 kts 240°
2026-05-05 20:52 46.83406 -68.74634 35623 ft 384 kts 240°
2026-05-05 20:53 46.80795 -68.81427 35603 ft 383 kts 239°
2026-05-05 20:53 46.78159 -68.88266 35622 ft 386 kts 240°
2026-05-05 20:54 46.75536 -68.95054 35629 ft 386 kts 240°
2026-05-05 20:54 46.72884 -69.01897 35622 ft 388 kts 239°
2026-05-05 20:55 46.70229 -69.08733 35615 ft 388 kts 239°
2026-05-05 20:55 46.67593 -69.15505 35603 ft 387 kts 239°
2026-05-05 20:56 46.64947 -69.22282 35606 ft 386 kts 240°
2026-05-05 20:56 46.62299 -69.29051 35599 ft 386 kts 240°
2026-05-05 20:57 46.59655 -69.35792 35605 ft 386 kts 240°
2026-05-05 20:57 46.56991 -69.42563 35613 ft 389 kts 241°
2026-05-05 20:58 46.54328 -69.49319 35619 ft 387 kts 241°
2026-05-05 20:58 46.51678 -69.56024 35607 ft 385 kts 240°
2026-05-05 20:59 46.48992 -69.62807 35603 ft 388 kts 240°
2026-05-05 20:59 46.46311 -69.69556 35637 ft 385 kts 240°
2026-05-05 21:00 46.43610 -69.76341 35619 ft 390 kts 240°
2026-05-05 21:00 46.40903 -69.83123 35617 ft 388 kts 241°
2026-05-05 21:01 46.38178 -69.89934 35621 ft 393 kts 240°
2026-05-05 21:01 46.35448 -69.96739 35633 ft 389 kts 241°
2026-05-05 21:02 46.32748 -70.03455 35616 ft 392 kts 241°
2026-05-05 21:02 46.30001 -70.10268 35617 ft 389 kts 241°
2026-05-05 21:03 46.27265 -70.17039 35628 ft 391 kts 241°
2026-05-05 21:03 46.24551 -70.23741 35629 ft 387 kts 240°
2026-05-05 21:04 46.21806 -70.30500 35640 ft 395 kts 241°
2026-05-05 21:04 46.19055 -70.37258 35626 ft 386 kts 241°
2026-05-05 21:05 46.16328 -70.43940 35630 ft 392 kts 241°
2026-05-05 21:05 46.13570 -70.50684 35635 ft 389 kts 241°
2026-05-05 21:06 46.10820 -70.57391 35634 ft 388 kts 240°
2026-05-05 21:06 46.08043 -70.64146 35642 ft 392 kts 241°
2026-05-05 21:07 46.05270 -70.70875 35641 ft 392 kts 240°
2026-05-05 21:07 46.02497 -70.77591 35642 ft 391 kts 240°
2026-05-05 21:08 45.99970 -70.84493 35640 ft 390 kts 249°
2026-05-05 21:08 45.98735 -70.92107 35652 ft 394 kts 263°
2026-05-05 21:09 45.98634 -70.99953 35596 ft 391 kts 266°
2026-05-05 21:09 45.98603 -71.03859 34953 ft 390 kts 266°
2026-05-05 21:09 45.98555 -71.07700 34197 ft 390 kts 266°
2026-05-05 21:10 45.98494 -71.11580 33527 ft 388 kts 266°
2026-05-05 21:10 45.98425 -71.15457 32834 ft 386 kts 266°
2026-05-05 21:10 45.98350 -71.19290 32148 ft 384 kts 265°
2026-05-05 21:10 45.98268 -71.23180 31439 ft 400 kts 265°
2026-05-05 21:11 45.98178 -71.27216 30665 ft 411 kts 266°
2026-05-05 21:11 45.98085 -71.31321 30046 ft 407 kts 265°
2026-05-05 21:11 45.97993 -71.35339 29659 ft 398 kts 265°
2026-05-05 21:11 45.97901 -71.39251 29227 ft 392 kts 265°
2026-05-05 21:12 45.97807 -71.43146 28769 ft 392 kts 265°
2026-05-05 21:12 45.97710 -71.47042 28298 ft 393 kts 265°
2026-05-05 21:12 45.97613 -71.50929 27830 ft 389 kts 265°
2026-05-05 21:12 45.97516 -71.54791 27372 ft 384 kts 265°
2026-05-05 21:13 45.97417 -71.58595 26946 ft 379 kts 265°
2026-05-05 21:13 45.97318 -71.62318 26532 ft 378 kts 265°
2026-05-05 21:13 45.97217 -71.66090 26112 ft 378 kts 264°
2026-05-05 21:13 45.97115 -71.69870 25692 ft 376 kts 264°
2026-05-05 21:14 45.97013 -71.73583 25266 ft 372 kts 264°
2026-05-05 21:14 45.96912 -71.77263 24840 ft 367 kts 264°
2026-05-05 21:14 45.96810 -71.80901 24428 ft 364 kts 264°
2026-05-05 21:14 45.96707 -71.84525 24008 ft 364 kts 264°
2026-05-05 21:15 45.96603 -71.88146 23597 ft 362 kts 263°
2026-05-05 21:15 45.96500 -71.91718 23181 ft 358 kts 264°
2026-05-05 21:15 45.96396 -71.95262 22792 ft 354 kts 264°
2026-05-05 21:15 45.96291 -71.98776 22396 ft 355 kts 264°
2026-05-05 21:16 45.96185 -72.02321 21982 ft 355 kts 264°
2026-05-05 21:16 45.96080 -72.05811 21572 ft 351 kts 264°
2026-05-05 21:16 45.95975 -72.09277 21170 ft 346 kts 264°
2026-05-05 21:16 45.95870 -72.12685 20766 ft 342 kts 264°
2026-05-05 21:17 45.95763 -72.16092 20373 ft 342 kts 264°
2026-05-05 21:17 45.95655 -72.19515 19971 ft 340 kts 264°
2026-05-05 21:17 45.95549 -72.22871 19622 ft 339 kts 263°
2026-05-05 21:17 45.95441 -72.26247 19218 ft 336 kts 263°
2026-05-05 21:18 45.95334 -72.29560 18832 ft 334 kts 263°
2026-05-05 21:18 45.95226 -72.32872 18464 ft 334 kts 264°
2026-05-05 21:18 45.95116 -72.36192 18080 ft 329 kts 262°
2026-05-05 21:18 45.94814 -72.39368 17716 ft 323 kts 254°
2026-05-05 21:19 45.94136 -72.42461 17345 ft 321 kts 246°
2026-05-05 21:19 45.93168 -72.45306 16976 ft 319 kts 242°
2026-05-05 21:19 45.92142 -72.48119 16616 ft 317 kts 242°
2026-05-05 21:19 45.91130 -72.50863 16267 ft 314 kts 242°
2026-05-05 21:20 45.90103 -72.53628 16076 ft 312 kts 242°
2026-05-05 21:20 45.89078 -72.56382 15881 ft 314 kts 242°
2026-05-05 21:20 45.88067 -72.59092 15754 ft 301 kts 242°
2026-05-05 21:20 45.87093 -72.61701 15702 ft 285 kts 242°
2026-05-05 21:21 45.86189 -72.64120 15682 ft 271 kts 242°
2026-05-05 21:21 45.85317 -72.66452 15596 ft 259 kts 241°
2026-05-05 21:21 45.84479 -72.68689 15318 ft 255 kts 241°
2026-05-05 21:21 45.83640 -72.70929 14884 ft 257 kts 241°
2026-05-05 21:22 45.82788 -72.73200 14511 ft 256 kts 241°
2026-05-05 21:22 45.81956 -72.75417 14202 ft 253 kts 241°
2026-05-05 21:22 45.81129 -72.77618 13826 ft 253 kts 241°
2026-05-05 21:22 45.80297 -72.79830 13499 ft 251 kts 241°
2026-05-05 21:23 45.79473 -72.82015 13154 ft 249 kts 241°
2026-05-05 21:23 45.78648 -72.84205 12938 ft 243 kts 241°
2026-05-05 21:23 45.77867 -72.86272 12846 ft 233 kts 241°
2026-05-05 21:23 45.77111 -72.88274 12588 ft 231 kts 241°
2026-05-05 21:24 45.76340 -72.90316 12217 ft 232 kts 241°
2026-05-05 21:24 45.75575 -72.92337 11936 ft 229 kts 242°
2026-05-05 21:24 45.74826 -72.94317 11614 ft 229 kts 241°
2026-05-05 21:24 45.74072 -72.96309 11312 ft 227 kts 241°
2026-05-05 21:25 45.73317 -72.98297 11011 ft 226 kts 242°
2026-05-05 21:25 45.72576 -73.00254 10682 ft 226 kts 242°
2026-05-05 21:25 45.71953 -73.02277 10419 ft 224 kts 253°
2026-05-05 21:25 45.71677 -73.04466 10110 ft 224 kts 257°
2026-05-05 21:26 45.71444 -73.06657 9822 ft 222 kts 258°
2026-05-05 21:26 45.71217 -73.08817 9522 ft 221 kts 258°
2026-05-05 21:26 45.70987 -73.10992 9180 ft 222 kts 258°
2026-05-05 21:26 45.70701 -73.13155 8895 ft 219 kts 253°
2026-05-05 21:27 45.70326 -73.15240 8588 ft 219 kts 253°
2026-05-05 21:27 45.69939 -73.17356 8293 ft 218 kts 253°
2026-05-05 21:27 45.69564 -73.19418 8004 ft 217 kts 254°
2026-05-05 21:27 45.69184 -73.21515 7681 ft 217 kts 253°
2026-05-05 21:28 45.68810 -73.23573 7464 ft 213 kts 254°
2026-05-05 21:28 45.68442 -73.25597 7258 ft 208 kts 254°
2026-05-05 21:28 45.68074 -73.27618 6951 ft 208 kts 254°
2026-05-05 21:28 45.67716 -73.29579 6562 ft 207 kts 255°
2026-05-05 21:29 45.67353 -73.31564 6081 ft 209 kts 255°
2026-05-05 21:29 45.66984 -73.33583 5623 ft 209 kts 255°
2026-05-05 21:29 45.66620 -73.35572 5172 ft 209 kts 256°
2026-05-05 21:29 45.66252 -73.37585 4747 ft 209 kts 256°
2026-05-05 21:30 45.65886 -73.39584 4271 ft 210 kts 256°
2026-05-05 21:30 45.65516 -73.41597 3823 ft 210 kts 256°
2026-05-05 21:30 45.65150 -73.43592 3399 ft 210 kts 257°
2026-05-05 21:30 45.64782 -73.45592 3145 ft 203 kts 257°
2026-05-05 21:31 45.64427 -73.47516 3032 ft 201 kts 257°
2026-05-05 21:31 45.64071 -73.49450 3021 ft 203 kts 257°
2026-05-05 21:31 45.63711 -73.51404 3020 ft 202 kts 257°
2026-05-05 21:31 45.63313 -73.53352 3013 ft 204 kts 249°
2026-05-05 21:32 45.62472 -73.54971 3014 ft 204 kts 232°
2026-05-05 21:32 45.61449 -73.56360 3018 ft 204 kts 229°
2026-05-05 21:32 45.60420 -73.57715 3020 ft 201 kts 230°
2026-05-05 21:32 45.59409 -73.59103 3018 ft 201 kts 230°
2026-05-05 21:33 45.58403 -73.60430 2893 ft 193 kts 229°
2026-05-05 21:33 45.57445 -73.61669 2644 ft 188 kts 229°
2026-05-05 21:33 45.56482 -73.62928 2380 ft 186 kts 229°
2026-05-05 21:33 45.55542 -73.64156 2123 ft 178 kts 229°
2026-05-05 21:34 45.54666 -73.65299 1880 ft 164 kts 229°
2026-05-05 21:34 45.53882 -73.66338 1655 ft 145 kts 229°
2026-05-05 21:34 45.53178 -73.67255 1479 ft 130 kts 229°
2026-05-05 21:34 45.52534 -73.68103 1311 ft 126 kts 229°
2026-05-05 21:35 45.51875 -73.68933 1181 ft 126 kts 227°
2026-05-05 21:35 45.51210 -73.69794 982 ft 129 kts 228°
2026-05-05 21:35 45.50563 -73.70658 816 ft 129 kts 228°
2026-05-05 21:35 45.49914 -73.71530 638 ft 128 kts 229°
2026-05-05 21:36 45.49244 -73.72387 449 ft 130 kts 226°
2026-05-05 21:36 45.48575 -73.73263 263 ft 129 kts 226°
2026-05-05 21:36 45.47933 -73.74118 145 ft 121 kts 224°
2026-05-05 21:36 45.47387 -73.74822 124 ft 88 kts 223°
2026-05-05 21:37 45.47025 -73.75298 122 ft 52 kts 223°
2026-05-05 21:37 45.46819 -73.75541 120 ft 32 kts 205°
2026-05-05 21:37 45.46609 -73.75625 119 ft 31 kts 194°
2026-05-05 21:37 45.46404 -73.75689 117 ft 27 kts 191°
2026-05-05 21:38 45.46269 -73.75722 117 ft 14 kts 179°
2026-05-05 21:38 45.46162 -73.75712 116 ft 16 kts 176°
2026-05-05 21:38 45.46077 -73.75727 115 ft 12 kts 222°
2026-05-05 21:38 45.46056 -73.75860 115 ft 15 kts 267°
2026-05-05 21:39 45.46021 -73.75938 115 ft 10 kts 193°
2026-05-05 21:39 45.45938 -73.75933 114 ft 13 kts 169°
2026-05-05 21:39 45.45842 -73.75899 113 ft 15 kts 160°
2026-05-05 21:39 45.45756 -73.75808 113 ft 15 kts 114°
2026-05-05 21:40 45.45743 -73.75722 113 ft 8 kts 84°
2026-05-05 21:40 45.45767 -73.75691 113 ft 4 kts
2026-05-05 21:40 45.45798 -73.75687 113 ft 1 kts
2026-05-05 21:40 45.45808 -73.75685 113 ft 2 kts
2026-05-05 21:41 45.45813 -73.75684 113 ft 0 kts